CAPE
0 0 0 0 0 0 1 2 0 1 3 0 2 1 1 2 0 0 0 0 0 0 0 0 0 0 0 0 0 0 0 0 0 0 0 0 0 0 0 0 0 0 0 0 0
0 0 0 0 0 0 1 2 3 0 2 3 0 1 3 1 0 0 0 0 0 0 0 0 0 0 0 0 0 0 0 0 0 0 0 0 0 0 0 0 0 0 0 0 0
0 0 0 0 0 0 0 3 2 2 1 0 1 1 1 1 0 0 0 0 0 0 0 0 0 0 0 0 0 0 0 0 0 0 0 0 0 0 0 0 0 0 0 0 0
0 0 0 0 0 0 0 0 2 3 1 2 1 1 3 0 0 0 0 0 0 0 0 0 0 0 0 0 0 0 0 0 0 0 0 0 0 0 0 0 0 0 0 0 0
0 0 0 0 0 0 0 0 0 2 2 2 2 0 0 0 0 0 0 0 0 0 0 0 0 0 0 0 0 0 0 0 0 0 0 0 0 0 0 0 0 0 0 0 0
0 0 0 0 0 0 0 0 0 0 2 1 1 0 0 0 0 0 0 0 0 0 0 0 0 0 0 0 0 0 0 0 0 0 0 0 0 0 0 0 0 0 0 0 0
0 0 0 0 0 0 0 0 0 0 2 2 1 2 0 0 0 0 0 0 0 0 0 0 0 0 0 0 0 0 0 0 0 0 0 0 0 0 0 0 0 0 0 0 0
0 0 0 1 2 2 3 0 0 0 2 1 1 1 0 0 0 0 0 0 0 0 0 0 0 0 0 0 0 0 0 0 0 0 0 0 0 0 0 0 0 0 0 0 0
0 0 0 1 2 4 3 1 0 0 0 1 0 0 0 0 0 0 0 0 0 0 0 0 0 0 0 0 0 0 0 0 0 0 0 0 0 0 0 0 0 0 0 0 0
1 0 0 2 2 6 2 0 0 0 0 2 0 0 0 0 0 0 0 0 0 0 0 0 0 0 0 0 0 0 0 0 0 0 0 0 0 0 0 0 0 0 0 0 0
0 0 0 3 2 3 0 0 0 0 0 0 0 0 0 0 0 0 0 0 0 0 0 0 0 0 0 0 0 0 0 0 0 0 0 0 0 0 0 0 0 0 0 0 0
0 0 1 1 2 4 1 0 0 0 0 0 0 0 0 0 0 0 0 0 0 0 0 0 0 0 0 0 0 0 0 0 0 0 0 0 0 0 0 0 0 0 0 0 0
0 0 1 0 1 0 0 0 0 0 0 0 0 0 0 0 0 0 0 0 0 0 0 0 0 0 0 0 0 0 0 0 0 0 0 0 0 0 0 0 0 0 0 0 0
0 0 1 0 0 0 0 0 0 0 0 0 0 0 0 0 0 0 0 0 0 0 0 0 0 0 0 0 0 0 0 0 0 0 0 0 0 0 0 0 0 0 0 0 0
0 0 1 1 0 0 0 0 0 0 0 0 0 0 0 0 0 0 0 0 0 0 0 0 0 0 0 0 0 0 0 0 0 0 0 0 0 0 0 0 0 0 0 0 0
0 0 2 0 0 0 0 0 0 0 0 0 0 0 0 0 0 0 0 0 0 0 0 0 0 0 0 0 0 0 0 0 0 0 0 0 0 0 0 0 0 0 0 0 0
0 0 0 0 0 0 0 0 0 0 8 0 0 0 0 0 0 0 0 0 0 0 0 0 0 0 0 0 0 0 0 0 0 0 0 0 0 0 0 0 0 0 0 0 0
0 0 0 0 0 0 0 0 0 32 9 13 0 0 0 0 0 0 0 0 0 0 0 0 0 0 0 0 0 0 0 0 0 0 0 0 0 0 0 0 0 0 0 0 0
0 0 0 0 0 0 0 0 4 5 0 0 0 0 0 0 0 0 0 0 0 0 0 0 0 0 0 0 0 0 0 0 0 0 0 0 0 0 0 0 0 0 0 0 0
0 0 0 0 0 0 0 0 54 0 0 0 0 1 1 0 0 0 0 0 20 0 0 0 0 3 0 0 0 0 0 0 0 0 0 0 0 0 0 0 0 0 0 0 0
0 0 3 0 0 0 0 0 63 0 0 0 0 0 0 0 3 2 4 12 0 0 0 0 0 0 0 0 0 0 1 0 0 0 0 0 0 0 0 0 0 0 0 0 0
0 0 6 1 0 0 0 0 102 0 0 0 0 0 0 0 0 0 0 0 0 0 0 0 0 0 0 0 0 0 1 0 0 0 0 0 0 0 0 0 0 0 0 0 0
0 0 0 5 10 0 0 19 22 1 0 0 0 0 0 0 0 0 0 0 0 0 0 0 0 0 0 0 0 0 0 1 0 0 0 0 0 0 0 0 0 0 0 0 0
0 0 12 13 0 0 0 0 0 0 0 0 0 0 0 0 0 0 0 0 0 0 0 0 0 0 0 0 0 3 2 0 0 0 0 0 0 0 0 0 0 0 0 0 0
0 9 0 2 0 0 0 0 0 0 0 0 0 0 0 0 0 0 0 0 0 0 0 0 0 0 0 0 0 0 0 0 0 1 1 0 0 0 0 0 0 0 0 0 0
0 0 0 0 0 0 2 0 0 0 0 0 0 0 0 0 0 0 0 0 0 0 0 0 0 0 0 0 0 0 0 0 0 0 6 0 0 0 0 0 0 0 0 0 0
0 0 0 0 0 0 0 0 0 0 0 0 0 0 0 0 0 0 0 0 0 0 0 0 0 1 0 0 0 0 0 0 0 1 6 0 0 0 0 0 0 0 0 0 0
CIN
0 0 0 0 0 0 0 -0 0 0 0 0 0 -0 0 0 0 0 0 0 0 0 0 0 0 0 0 0 0 0 0 0 0 0 0 0 0 0 0 0 0 0 0 0 0
0 0 0 0 0 0 0 0 0 0 -0 -0 0 0 0 0 0 0 0 0 0 0 0 0 0 0 0 0 0 0 0 0 0 0 0 0 0 0 0 0 0 0 0 0 0
0 0 0 0 0 0 0 0 0 -0 0 0 0 0 -0 -0 0 0 0 0 0 0 0 0 0 0 0 0 0 0 0 0 0 0 0 0 0 0 0 0 0 0 0 0 0
0 0 0 0 0 0 0 0 0 -0 0 -0 -0 0 0 0 0 0 0 0 0 0 0 0 0 0 0 0 0 0 0 0 0 0 0 0 0 0 0 0 0 0 0 0 0
0 0 0 0 0 0 0 0 0 -0 -0 0 -0 0 0 0 0 0 0 0 0 0 0 0 0 0 0 0 0 0 0 0 0 0 0 0 0 0 0 0 0 0 0 0 0
0 0 0 0 0 0 0 0 0 0 0 0 0 0 0 0 0 0 0 0 0 0 0 0 0 0 0 0 0 0 0 0 0 0 0 0 0 0 0 0 0 0 0 0 0
0 0 0 0 0 0 0 0 0 0 0 0 0 0 0 0 0 0 0 0 0 0 0 0 0 0 0 0 0 0 0 0 0 0 0 0 0 0 0 0 0 0 0 0 0
0 0 0 0 0 0 0 0 -0 0 0 -0 0 -0 0 0 0 0 0 0 0 0 0 0 0 0 0 0 0 0 0 0 0 0 0 0 0 0 0 0 0 0 0 0 0
0 0 0 -0 -0 0 -0 -0 0 0 0 -0 0 0 0 0 0 0 0 0 0 0 0 0 0 0 0 0 0 0 0 0 0 0 0 0 0 0 0 0 0 0 0 0 0
0 0 0 0 0 -0 -0 0 0 0 -0 0 0 0 0 0 0 0 0 0 0 0 0 0 0 0 0 0 0 0 0 0 0 0 0 0 0 0 0 0 0 0 0 0 0
0 0 0 -1 0 -1 -0 0 0 0 0 0 0 0 0 0 0 0 0 0 0 0 0 0 0 0 0 0 0 0 0 0 0 0 0 0 0 0 0 0 0 0 0 0 0
0 0 0 -1 0 0 -0 0 0 0 0 0 0 0 0 0 0 0 0 0 0 0 0 0 0 0 0 0 0 0 0 0 0 0 0 0 0 0 0 0 0 0 0 0 0
0 0 0 -0 0 0 0 0 0 0 0 0 0 0 0 0 0 0 0 0 0 0 0 0 0 0 0 0 0 0 0 0 0 0 0 0 0 0 0 0 0 0 0 0 0
0 0 0 0 0 0 0 0 0 0 0 0 0 0 0 0 0 0 0 0 0 0 0 0 0 0 0 0 0 0 0 0 0 0 0 0 0 0 0 0 0 0 0 0 0
0 0 0 0 0 0 0 0 0 0 0 0 0 0 0 0 0 0 0 0 0 0 0 0 0 0 0 0 0 0 0 0 0 0 0 0 0 0 0 0 0 0 0 0 0
0 0 0 0 0 0 0 0 0 0 0 0 0 0 0 0 0 0 0 0 0 0 0 0 0 0 0 0 0 0 0 0 0 0 0 0 0 0 0 0 0 0 0 0 0
0 0 0 0 0 0 0 0 0 0 -13 0 0 0 0 0 0 0 0 0 0 0 0 0 0 0 0 0 0 0 0 0 0 0 0 0 0 0 0 0 0 0 0 0 0
0 0 0 0 0 0 0 0 0 -10 -13 -5 0 0 0 0 0 0 0 0 0 0 0 0 0 0 -3 0 0 0 0 0 0 0 0 0 0 0 0 0 0 0 0 0 0
0 0 0 0 0 0 0 0 -8 -10 0 0 0 0 0 0 0 0 0 0 0 0 0 0 0 0 0 0 0 0 0 0 0 0 0 0 0 0 0 0 0 0 0 0 0
0 0 0 0 0 0 0 0 -33 0 0 0 0 -9 -17 0 0 0 0 0 -3 0 0 0 0 -31 0 0 0 0 0 0 0 0 0 0 0 0 0 0 0 0 0 0 0
0 0 -209 -21 0 0 0 0 -17 0 0 0 0 0 0 0 -33 -8 -13 -16 -27 0 0 0 0 0 0 0 0 0 -24 0 0 0 0 0 0 0 0 0 0 0 0 0 0
0 0 -237 -261 0 0 0 0 -28 0 0 0 0 0 0 0 0 0 0 0 0 0 0 0 0 0 0 0 0 0 -26 -2 -1 0 0 0 0 0 0 0 0 0 0 0 0
0 0 0 -202 -139 0 -9 -119 -59 -25 0 0 0 0 0 0 0 0 0 0 0 0 0 0 0 0 0 0 0 0 -0 -4 0 0 0 0 0 0 0 0 0 0 0 0 0
0 -46 -173 -149 0 0 0 0 0 0 0 0 0 0 0 0 0 0 0 0 0 0 0 0 0 0 0 0 0 -37 -18 0 -6 0 0 0 0 0 0 0 0 0 0 0 0
0 -185 0 -39 0 0 0 -33 -48 0 0 0 0 0 0 0 0 0 0 0 0 0 0 0 0 0 0 0 0 0 0 0 0 0 -5 0 0 0 0 0 0 0 0 0 0
0 -4 0 0 0 0 -79 -0 0 0 0 0 0 0 0 0 0 0 0 0 0 0 0 0 0 0 0 0 0 0 0 0 0 -28 -35 -0 0 0 0 0 0 0 0 0 0
0 0 0 0 0 0 0 0 0 0 0 0 0 0 0 0 0 0 0 0 0 0 0 0 -5 -17 -1 0 0 0 0 0 0 -26 -15 0 0 0 0 0 0 0 0 0 0
Wind_Speed
34 34 34 34 34 34 34 33 32 30 29 28 27 27 27 28 29 25 25 15 13 8 13 18 14 15 20 25 27 29 36 47 42 38 35 22 29 36 22 23 15 9 5 5 5
33 35 34 34 34 34 34 33 33 31 30 28 27 27 26 27 27 26 6 10 7 12 9 14 14 14 21 24 28 33 42 45 39 41 39 28 25 37 24 22 19 13 14 12 11
16 34 35 35 35 34 34 33 33 32 30 29 27 25 24 24 23 17 13 3 1 1 6 8 12 13 18 24 28 34 44 43 48 44 40 36 37 37 28 29 18 20 12 16 14
11 9 12 37 36 35 34 33 33 32 31 29 26 24 24 19 20 14 18 14 7 5 4 7 8 12 18 24 29 35 38 44 46 42 38 38 32 41 42 38 26 22 21 15 14
12 11 8 14 35 36 35 33 32 32 31 29 22 22 19 18 16 13 17 12 9 7 6 3 4 7 15 20 29 35 41 39 45 44 38 35 46 43 39 42 36 29 21 21 20
14 13 10 9 10 24 35 34 33 32 31 27 14 18 16 18 12 11 13 10 9 11 12 13 3 20 21 27 29 28 41 43 42 45 38 38 39 28 31 33 34 32 32 24 25
15 15 14 13 9 9 33 34 32 32 31 12 8 11 14 1 13 10 12 11 12 15 14 15 26 22 20 26 35 35 34 34 42 42 39 36 42 39 29 27 33 37 38 33 27
13 14 14 15 13 12 26 31 30 29 23 11 9 10 10 15 15 7 10 8 14 17 16 15 25 26 28 26 26 35 33 39 37 36 32 25 42 33 26 26 27 22 23 25 23
17 15 12 16 18 13 8 28 29 24 15 10 10 11 10 23 12 12 11 7 6 8 26 25 23 25 25 27 25 24 32 26 33 27 27 28 35 34 30 25 27 24 17 17 19
23 20 15 18 16 11 8 11 12 15 13 11 9 13 8 13 10 5 3 18 20 16 26 24 21 27 27 24 29 24 23 22 24 29 32 37 34 30 20 24 25 16 16 16 16
28 28 21 15 20 21 27 17 13 13 10 6 8 6 13 18 9 6 5 8 20 18 25 23 25 33 31 28 26 24 26 24 27 30 36 46 39 31 21 18 18 18 17 16 16
35 34 26 17 12 16 16 14 12 16 20 5 14 12 25 19 9 8 5 12 14 21 21 24 28 28 28 28 27 29 29 30 26 23 20 28 29 28 23 19 16 19 22 23 21
38 37 36 34 17 18 15 12 13 22 20 20 4 6 5 8 8 5 1 11 16 21 26 24 23 22 28 30 31 29 33 25 24 22 19 15 19 19 21 23 27 24 20 19 8
39 39 38 39 18 18 15 15 13 14 20 16 9 10 4 8 13 16 5 9 16 25 25 24 28 26 30 36 26 24 21 19 20 21 25 18 25 23 23 27 26 25 15 6 4
41 40 36 28 15 16 14 23 19 15 19 11 10 11 8 4 13 4 13 15 20 24 20 22 21 23 24 23 22 21 16 18 17 18 21 22 25 27 26 28 21 12 7 5 5
43 41 37 19 12 7 12 26 16 15 16 11 9 10 7 5 11 7 6 13 18 24 26 28 26 23 18 25 24 12 16 18 20 21 30 25 26 32 33 23 13 9 6 6 7
44 41 31 13 11 14 22 16 15 15 15 10 9 9 7 5 8 11 3 6 13 18 24 22 25 24 23 21 16 14 16 25 29 28 31 22 29 30 25 14 6 5 6 7 8
45 40 18 8 7 15 18 14 14 14 9 18 11 4 6 6 4 3 4 8 11 15 21 22 20 15 14 15 18 18 18 22 24 27 27 26 26 24 8 4 3 5 7 10 12
43 28 19 11 4 10 14 12 13 12 14 18 19 6 10 5 13 1 3 3 11 9 17 16 21 16 17 16 16 19 20 14 19 22 25 23 18 14 9 8 10 12 13 14 15
37 27 21 8 4 10 14 14 15 15 15 16 17 16 14 16 7 16 15 17 17 19 11 17 23 21 22 19 19 20 17 24 23 26 27 24 22 20 14 13 13 16 18 21 21
27 25 16 4 5 12 15 14 17 13 13 14 16 17 15 14 15 16 18 19 17 19 17 17 19 21 21 21 24 26 26 23 21 19 24 25 24 13 10 12 17 21 22 24 23
26 21 14 11 13 17 18 16 19 20 12 14 15 15 15 15 14 15 15 18 17 18 21 21 20 23 25 24 27 26 25 22 25 26 25 27 24 15 19 26 29 29 17 16 18
29 22 21 12 19 21 22 21 18 29 17 15 14 14 16 17 17 16 16 18 18 18 16 16 22 25 26 24 21 23 22 21 21 20 18 23 27 25 33 33 21 18 19 19 18
23 22 20 19 20 25 25 21 20 26 15 14 14 16 17 18 18 17 16 18 18 18 17 18 21 23 27 23 21 26 26 26 24 26 25 24 32 33 31 23 19 20 20 21 23
19 19 20 21 22 27 25 23 24 20 16 16 17 15 15 17 20 18 20 20 19 21 19 19 23 24 25 27 27 28 28 28 30 25 28 25 26 28 18 15 17 18 22 26 31
22 21 23 28 27 27 23 24 27 20 19 18 14 16 16 18 17 19 22 21 21 21 19 20 22 22 28 28 28 32 26 22 22 24 30 30 31 17 16 16 20 24 27 32 35
20 22 21 24 25 25 25 28 23 17 18 15 15 18 21 19 20 21 22 23 22 21 20 21 20 22 27 26 28 31 26 24 22 20 21 27 20 19 21 22 24 28 32 35 37
Wind_Direction
333 333 334 333 334 334 329 323 319 316 313 311 310 310 310 310 309 317 311 325 333 287 325 319 306 278 272 267 258 249 249 245 244 242 241 268 237 246 270 267 266 272 279 291 318
341 325 327 330 329 328 325 323 319 313 305 306 310 312 314 316 314 311 325 344 337 348 305 308 299 284 270 265 255 244 243 244 243 241 241 258 248 248 267 264 262 268 270 279 294
12 336 320 324 324 326 323 320 317 313 307 304 311 316 320 324 323 329 360 23 11 72 341 323 312 295 268 262 252 246 246 242 240 242 247 254 257 251 261 251 267 273 281 270 279
14 1 1 321 319 311 319 317 318 315 307 306 311 317 321 333 322 347 345 356 123 103 25 339 313 292 275 257 249 247 247 240 239 243 249 253 255 251 248 247 265 272 273 276 276
18 10 337 2 331 305 305 310 316 314 313 306 320 321 331 329 327 348 351 25 83 95 112 69 319 296 276 261 243 245 242 242 238 241 248 251 250 253 257 246 259 271 281 276 279
21 14 1 342 348 302 295 299 306 309 302 314 346 333 337 328 352 27 32 58 81 111 119 121 338 197 248 233 237 244 235 235 239 239 249 252 253 256 251 255 263 263 266 276 276
16 13 6 360 334 304 286 284 281 293 301 1 16 358 338 36 344 34 64 65 102 122 106 123 182 231 242 229 220 224 234 239 236 237 245 255 252 250 262 273 272 267 266 272 278
4 1 1 358 353 301 276 275 272 274 322 8 20 7 349 319 321 120 118 23 113 133 137 144 195 215 220 232 239 225 239 238 238 241 249 255 249 257 271 278 273 279 278 279 283
3 359 345 357 359 345 280 270 271 297 351 27 15 360 351 282 315 158 136 96 89 128 202 230 254 214 227 224 238 245 239 245 243 246 251 255 256 265 268 271 275 277 274 280 284
2 2 354 0 355 343 8 232 2 349 12 25 16 350 328 335 318 339 68 159 266 273 234 240 256 237 237 238 221 235 239 245 246 243 250 248 254 262 271 271 274 271 267 273 282
360 360 2 358 5 9 346 9 17 4 16 23 27 32 342 317 333 309 306 297 260 265 244 250 245 223 228 230 232 246 247 251 252 254 253 232 246 256 272 275 277 277 276 276 280
352 353 1 3 0 16 25 7 18 4 336 184 185 176 229 297 338 298 300 279 272 253 253 254 234 232 235 241 245 247 250 255 263 269 279 251 253 255 262 270 281 281 278 277 283
347 348 349 351 289 34 34 37 25 347 338 327 89 142 107 1 342 300 228 274 265 254 243 251 238 243 245 243 252 261 250 258 266 275 287 272 252 256 266 280 279 286 291 284 267
342 338 337 330 21 23 30 33 30 30 338 336 16 347 349 338 311 276 273 276 270 246 248 258 248 261 259 250 262 270 271 279 282 275 260 276 257 265 274 277 287 290 290 281 279
331 330 333 347 6 21 31 350 3 8 334 4 27 6 64 62 335 286 273 268 262 256 271 263 278 276 278 267 274 279 282 283 284 281 275 278 277 276 285 285 292 295 290 269 283
320 319 321 354 12 48 24 305 1 353 339 2 13 9 37 91 319 326 304 272 277 266 266 267 275 279 288 284 274 277 285 287 283 285 271 279 282 277 280 289 285 286 286 291 297
312 304 324 346 2 13 347 1 347 333 347 356 346 4 62 26 325 307 2 301 287 274 272 281 274 273 282 279 293 293 286 276 272 275 274 292 281 284 290 292 265 271 293 303 308
308 298 338 342 348 349 347 346 327 337 4 324 334 11 5 4 4 58 345 319 304 293 279 276 273 294 300 295 283 291 286 277 277 275 277 286 284 293 321 340 330 314 308 309 310
312 330 329 329 2 356 338 327 320 335 332 323 316 328 305 318 316 210 264 319 312 294 289 286 275 295 303 303 300 289 288 301 290 290 285 284 288 311 301 295 301 303 304 304 305
323 326 322 329 17 343 322 313 311 321 320 320 310 329 319 313 294 296 281 297 297 300 278 294 283 291 291 295 293 289 296 285 287 282 279 281 286 287 284 293 298 300 301 301 302
329 323 324 360 348 318 311 305 315 323 318 321 312 309 314 319 310 296 294 292 300 298 296 291 293 296 293 288 283 282 282 284 291 284 279 283 289 297 293 298 300 299 302 301 307
327 320 314 311 298 305 303 298 305 298 316 318 317 312 311 315 310 311 303 302 314 307 290 291 295 292 291 293 290 287 286 283 277 281 277 280 277 287 307 302 299 299 314 315 316
318 313 298 300 295 296 290 296 298 278 294 303 311 316 316 308 304 305 307 312 313 312 302 302 293 290 295 300 300 290 287 288 289 289 269 277 285 293 289 292 311 307 307 310 312
321 311 306 287 294 293 287 289 298 272 295 305 307 311 307 305 313 309 309 318 317 312 311 305 295 293 289 296 303 291 288 285 288 283 286 285 289 287 293 291 297 302 308 308 314
318 308 305 293 283 286 286 283 282 291 303 305 310 315 311 307 302 302 306 310 317 309 308 305 295 296 295 295 296 295 289 286 285 281 284 292 294 294 305 301 304 310 311 312 310
311 311 299 287 286 286 285 280 277 288 294 295 306 315 319 308 309 307 302 305 305 310 310 309 301 305 295 295 295 290 293 286 280 291 277 286 287 307 309 309 307 311 313 310 308
321 310 306 291 290 284 285 283 281 289 300 303 301 304 306 313 312 308 305 300 300 305 305 306 308 305 299 303 299 294 295 293 282 277 281 281 291 299 302 304 309 311 310 308 311